User: anonymous   Login
Location: Prairie State College
(41.5244°N, 87.6382°W)
Time: 22:34:26
(UTC-05:00)
Language:

Cosmos 1140 Rocket - Orbit

View from above orbital plane
View from above orbital plane
View from above satellite
View from above satellite

Ground track
Ground track

The orbit data is extracted from the following two-line orbital elements,

1 11574U 79089B   16152.54019970  .00000036  00000-0  19642-4 0  9996
2 11574  74.0689 203.4693 0016403 209.6111 150.4117 14.40574017922189
Epoch (UTC): 31 May 2016 12:57:53
Eccentricity: 0.0016403
inclination: 74.0689°
perigee height: 745 km
apogee height: 768 km
right ascension of ascending node: 203.4693°
argument of perigee: 209.6111°
revolutions per day: 14.40574017
mean anomaly at epoch: 150.4117°
orbit number at epoch: 92218

The dashed part of the orbit path shows where the satellite is in the earth's shadow,  

DLR